• In Romania
  • List of Countries
  • For 7 days
  • Water Temperature
  • Satellite Maps
  • Weather Map
  • Weather Widgets
  • user-avatar
    Login

    Hourly Weather Mingachevir

    Today, 30 March, Thursday

    Time Temperature Precipitation Wind Pressure Humidity
    00:00 +7°C° 0 mm 2 mps 758 mmHg 72%
    01:00 +7°C° 0 mm 2 mps 758 mmHg 74%
    02:00 +6°C° 0 mm 2 mps 758 mmHg 77%
    03:00 +7°C° 0 mm 1 mps 759 mmHg 80%
    04:00 +7°C° 0 mm 1 mps 759 mmHg 81%
    05:00 +7°C° 0 mm 1 mps 759 mmHg 82%
    06:00 +6°C° 0 mm 1 mps 759 mmHg 83%
    07:00 +8°C° 0 mm 1 mps 758 mmHg 74%
    08:00 +10°C° 0 mm 1 mps 758 mmHg 66%
    09:00 +12°C° 0 mm 1 mps 757 mmHg 57%
    10:00 +14°C° 0 mm 1 mps 756 mmHg 53%
    11:00 +15°C° 0 mm 1 mps 756 mmHg 49%
    12:00 +18°C° 0 mm 1 mps 755 mmHg 45%
    13:00 +18°C° 0 mm 1 mps 754 mmHg 43%
    14:00 +18°C° 0 mm 2 mps 753 mmHg 42%
    15:00 +18°C° 0 mm 2 mps 753 mmHg 40%
    16:00 +18°C° 0 mm 1 mps 753 mmHg 45%
    17:00 +16°C° 0 mm 1 mps 752 mmHg 50%
    18:00 +14°C° 0 mm 1 mps 752 mmHg 54%
    19:00 +14°C° 0 mm 1 mps 753 mmHg 56%
    20:00 +13°C° 0 mm 2 mps 753 mmHg 58%
    21:00 +12°C° 0 mm 2 mps 753 mmHg 60%
    22:00 +12°C° 0 mm 2 mps 753 mmHg 59%
    23:00 +12°C° 0 mm 2 mps 753 mmHg 57%

    Tomorrow, 31 March, Friday

    Time Temperature Precipitation Wind Pressure Humidity
    00:00 +12°C° 0 mm 2 mps 753 mmHg 55%
    01:00 +10°C° 0 mm 2 mps 753 mmHg 53%
    02:00 +10°C° 0 mm 3 mps 753 mmHg 52%
    03:00 +10°C° 0 mm 3 mps 753 mmHg 50%
    04:00 +10°C° 0 mm 2 mps 754 mmHg 50%
    05:00 +9°C° 0 mm 2 mps 754 mmHg 49%
    06:00 +9°C° 0 mm 2 mps 754 mmHg 49%
    07:00 +13°C° 0 mm 2 mps 754 mmHg 44%
    08:00 +15°C° 0 mm 2 mps 754 mmHg 39%
    09:00 +18°C° 0 mm 2 mps 754 mmHg 34%
    10:00 +19°C° 0 mm 2 mps 754 mmHg 32%
    11:00 +20°C° 0 mm 2 mps 754 mmHg 29%
    12:00 +21°C° 0 mm 2 mps 754 mmHg 27%
    13:00 +21°C° 0 mm 3 mps 754 mmHg 28%
    14:00 +21°C° 0 mm 4 mps 754 mmHg 30%
    15:00 +21°C° 0 mm 4 mps 754 mmHg 31%
    16:00 +19°C° 0.1 mm 5 mps 755 mmHg 40%
    17:00 +16°C° 0.1 mm 5 mps 755 mmHg 48%
    18:00 +15°C° 0.1 mm 6 mps 756 mmHg 57%
    19:00 +13°C° 0.3 mm 6 mps 756 mmHg 63%
    20:00 +11°C° 0.3 mm 7 mps 757 mmHg 68%
    21:00 +9°C° 0.3 mm 8 mps 758 mmHg 74%
    22:00 +9°C° 0.5 mm 7 mps 758 mmHg 76%
    23:00 +8°C° 0.5 mm 7 mps 758 mmHg 78%

    Day after tomorrow, 1 April, Saturday

    Time Temperature Precipitation Wind Pressure Humidity
    00:00 +7°C° 0.5 mm 6 mps 758 mmHg 81%
    01:00 +5°C° 0.3 mm 6 mps 758 mmHg 81%
    02:00 +6°C° 0.3 mm 5 mps 758 mmHg 81%
    03:00 +6°C° 0.3 mm 5 mps 757 mmHg 82%
    04:00 +5°C° 0.2 mm 5 mps 757 mmHg 82%
    05:00 +5°C° 0.2 mm 5 mps 758 mmHg 81%
    06:00 +5°C° 0.2 mm 5 mps 758 mmHg 81%
    07:00 +5°C° 0.2 mm 4 mps 758 mmHg 80%
    08:00 +6°C° 0.2 mm 4 mps 758 mmHg 78%
    09:00 +6°C° 0.2 mm 4 mps 758 mmHg 76%
    10:00 +6°C° 0.3 mm 4 mps 757 mmHg 74%
    11:00 +8°C° 0.3 mm 3 mps 757 mmHg 73%
    12:00 +8°C° 0.3 mm 3 mps 756 mmHg 71%
    13:00 +9°C° 0.2 mm 3 mps 756 mmHg 71%
    14:00 +9°C° 0.2 mm 2 mps 755 mmHg 71%
    15:00 +9°C° 0.2 mm 2 mps 755 mmHg 71%
    16:00 +9°C° 0.1 mm 2 mps 755 mmHg 74%
    17:00 +8°C° 0.1 mm 2 mps 755 mmHg 78%
    18:00 +8°C° 0.1 mm 2 mps 755 mmHg 81%
    19:00 +7°C° 0 mm 2 mps 756 mmHg 84%
    20:00 +7°C° 0 mm 2 mps 757 mmHg 88%
    21:00 +6°C° 0 mm 2 mps 757 mmHg 91%
    22:00 +6°C° 0 mm 2 mps 757 mmHg 92%
    23:00 +5°C° 0 mm 2 mps 757 mmHg 94%

    2 April, Sunday

    Time Temperature Precipitation Wind Pressure Humidity
    00:00 +5°C° 0 mm 2 mps 757 mmHg 95%
    01:00 +5°C° 0 mm 2 mps 758 mmHg 95%
    02:00 +5°C° 0 mm 2 mps 758 mmHg 95%
    03:00 +4°C° 0 mm 2 mps 758 mmHg 95%
    04:00 +5°C° 0.1 mm 1 mps 758 mmHg 95%
    05:00 +6°C° 0.1 mm 1 mps 759 mmHg 94%
    06:00 +6°C° 0.1 mm 1 mps 759 mmHg 93%
    07:00 +5°C° 0.3 mm 2 mps 759 mmHg 89%
    08:00 +5°C° 0.3 mm 3 mps 760 mmHg 85%
    09:00 +7°C° 0.3 mm 3 mps 760 mmHg 81%
    10:00 +6°C° 0.5 mm 4 mps 760 mmHg 79%
    11:00 +7°C° 0.5 mm 4 mps 760 mmHg 78%
    12:00 +7°C° 0.5 mm 4 mps 760 mmHg 76%
    13:00 +8°C° 0.2 mm 4 mps 760 mmHg 74%
    14:00 +8°C° 0.2 mm 4 mps 760 mmHg 71%
    15:00 +10°C° 0.2 mm 4 mps 760 mmHg 68%
    16:00 +8°C° 0 mm 4 mps 760 mmHg 71%
    17:00 +8°C° 0 mm 4 mps 761 mmHg 74%
    18:00 +8°C° 0 mm 3 mps 761 mmHg 76%
    19:00 +7°C° 0 mm 3 mps 762 mmHg 78%
    20:00 +5°C° 0 mm 3 mps 762 mmHg 80%
    21:00 +4°C° 0 mm 3 mps 762 mmHg 82%
    22:00 +5°C° 0 mm 2 mps 762 mmHg 82%
    23:00 +5°C° 0 mm 2 mps 762 mmHg 82%

    3 April, Monday

    Time Temperature Precipitation Wind Pressure Humidity
    00:00 +5°C° 0 mm 1 mps 762 mmHg 82%
    01:00 +5°C° 0 mm 1 mps 762 mmHg 83%
    02:00 +4°C° 0 mm 1 mps 761 mmHg 84%
    03:00 +4°C° 0 mm 1 mps 761 mmHg 85%
    04:00 +4°C° 0 mm 1 mps 761 mmHg 86%
    05:00 +4°C° 0 mm 1 mps 761 mmHg 86%
    06:00 +4°C° 0 mm 1 mps 761 mmHg 87%
    07:00 +6°C° 0 mm 1 mps 760 mmHg 78%
    08:00 +8°C° 0 mm 1 mps 760 mmHg 69%
    09:00 +10°C° 0 mm 1 mps 760 mmHg 61%
    10:00 +11°C° 0 mm 1 mps 759 mmHg 56%
    11:00 +13°C° 0 mm 1 mps 758 mmHg 52%
    12:00 +14°C° 0 mm 1 mps 758 mmHg 48%
    13:00 +15°C° 0 mm 1 mps 757 mmHg 46%
    14:00 +15°C° 0 mm 1 mps 757 mmHg 44%
    15:00 +16°C° 0 mm 1 mps 756 mmHg 42%
    16:00 +14°C° 0 mm 2 mps 757 mmHg 47%
    17:00 +13°C° 0 mm 2 mps 757 mmHg 53%
    18:00 +12°C° 0 mm 2 mps 757 mmHg 58%
    19:00 +10°C° 0 mm 2 mps 757 mmHg 62%
    20:00 +9°C° 0 mm 2 mps 758 mmHg 65%
    21:00 +8°C° 0 mm 2 mps 758 mmHg 69%
    22:00 +7°C° 0 mm 2 mps 758 mmHg 72%
    23:00 +7°C° 0 mm 2 mps 758 mmHg 74%

    4 April, Tuesday

    Time Temperature Precipitation Wind Pressure Humidity
    00:00 +6°C° 0 mm 2 mps 758 mmHg 77%
    01:00 +6°C° 0 mm 2 mps 758 mmHg 78%
    02:00 +6°C° 0 mm 1 mps 758 mmHg 79%
    03:00 +6°C° 0 mm 1 mps 757 mmHg 80%
    04:00 +6°C° 0 mm 1 mps 757 mmHg 79%
    05:00 +6°C° 0 mm 1 mps 757 mmHg 78%
    06:00 +6°C° 0 mm 1 mps 758 mmHg 77%
    07:00 +8°C° 0 mm 1 mps 757 mmHg 68%
    08:00 +11°C° 0 mm 1 mps 757 mmHg 59%
    09:00 +13°C° 0 mm 1 mps 757 mmHg 50%
    10:00 +15°C° 0 mm 1 mps 756 mmHg 45%
    11:00 +18°C° 0 mm 1 mps 756 mmHg 40%
    12:00 +19°C° 0 mm 1 mps 756 mmHg 35%
    13:00 +20°C° 0 mm 1 mps 755 mmHg 33%
    14:00 +21°C° 0 mm 1 mps 755 mmHg 32%
    15:00 +21°C° 0 mm 1 mps 755 mmHg 30%
    16:00 +20°C° 0 mm 1 mps 755 mmHg 36%
    17:00 +18°C° 0 mm 1 mps 755 mmHg 41%
    18:00 +15°C° 0 mm 2 mps 756 mmHg 47%
    19:00 +14°C° 0 mm 2 mps 756 mmHg 50%
    20:00 +13°C° 0 mm 2 mps 757 mmHg 52%
    21:00 +12°C° 0 mm 2 mps 757 mmHg 55%
    22:00 +12°C° 0 mm 2 mps 757 mmHg 58%
    23:00 +10°C° 0 mm 2 mps 757 mmHg 61%
    Show more